GEFSNE_500_meanwind_294.txt.gz
Wind_Speed
21 22 22 22 23 23 24 24 24 24 24 25 25 25 26 26 27 27 27 26 27 28 28 28 28 28 29 29 30 29 29 30 30 30 31 31 31 30
21 21 21 22 22 23 23 24 24 25 25 25 25 26 26 26 27 27 27 27 28 28 28 28 29 29 29 30 31 31 31 31 31 31 31 31 31 31
22 22 22 22 23 23 23 23 24 25 25 25 26 27 27 27 27 27 27 28 28 29 29 28 29 30 30 31 31 32 32 32 32 32 32 32 32 32
23 23 23 23 23 23 23 23 24 24 25 25 25 26 26 26 27 27 28 28 28 29 29 29 30 31 31 32 32 32 32 33 33 33 33 33 33 33
24 24 24 24 25 25 25 25 25 25 25 25 25 26 26 27 27 27 27 27 27 28 28 29 29 30 31 31 32 32 32 33 33 33 34 33 33 33
25 25 25 25 25 26 26 26 26 26 26 26 26 26 26 27 27 28 28 28 28 29 29 29 29 30 30 31 31 31 32 33 34 34 34 34 34 34
25 26 26 26 27 26 26 26 26 25 25 25 26 27 27 27 28 29 29 29 30 30 30 30 30 30 31 31 32 32 33 33 34 34 34 34 34 34
25 26 27 27 27 26 26 27 27 26 26 26 27 27 28 28 28 29 29 30 30 31 31 30 30 30 30 31 32 33 33 33 33 33 33 33 33 33
26 26 26 26 26 26 26 26 26 27 28 28 28 28 28 28 28 29 30 30 30 30 31 30 30 30 30 30 31 32 33 33 33 33 33 33 33 34
26 26 27 27 27 27 27 27 27 27 28 28 28 28 28 28 29 29 30 31 30 30 30 30 30 31 31 31 31 31 31 32 32 32 33 33 34 34
27 28 28 28 28 28 27 27 27 27 27 28 29 29 28 29 29 30 31 31 31 31 31 31 30 31 31 31 31 31 31 31 32 32 32 33 34 34
28 28 29 29 29 28 28 27 28 28 29 30 30 30 29 29 30 31 32 31 31 30 30 30 30 30 29 30 30 30 31 31 31 32 32 33 34 34
28 28 29 28 28 29 29 29 30 30 30 31 31 30 30 30 31 31 32 31 30 30 30 31 31 30 29 29 29 29 30 31 32 32 32 33 34 34
28 28 28 28 28 28 29 30 30 30 30 30 30 30 30 30 30 30 31 31 31 30 30 30 31 31 30 30 30 29 29 30 30 31 31 32 32 32
29 29 29 29 29 29 29 29 29 30 30 30 30 30 30 31 31 30 31 31 32 31 31 31 31 31 31 31 30 30 30 30 30 30 30 30 30 31
29 29 30 30 29 28 28 28 29 29 29 30 30 31 31 31 30 30 31 31 31 31 31 31 32 31 31 31 30 30 30 30 31 31 30 30 30 29
29 29 29 29 29 29 29 28 29 29 30 30 31 31 31 31 30 31 31 31 31 32 32 31 31 31 31 30 30 29 29 30 30 30 29 29 28 29
28 28 29 29 29 28 28 28 28 29 29 30 30 30 30 30 30 31 31 31 31 32 32 31 31 30 30 29 29 29 29 29 28 28 28 28 28 28
27 27 27 28 28 28 28 27 27 28 29 28 29 29 29 30 30 31 31 31 30 30 31 30 30 30 28 28 27 28 28 28 27 27 26 27 27 28
27 27 27 27 28 28 27 27 28 28 28 28 28 29 29 29 29 29 30 30 29 29 29 29 29 29 28 27 27 27 27 26 26 26 26 26 26 26
26 27 27 27 27 27 27 28 28 28 28 28 28 29 29 29 29 28 29 29 28 28 28 28 28 27 27 27 26 26 27 26 25 25 25 25 25 25
26 27 27 27 27 27 28 28 28 28 29 29 28 29 29 29 28 28 27 27 26 27 27 27 27 27 28 28 26 26 26 26 26 25 24 24 24 24
26 26 27 27 27 28 28 28 28 29 29 29 29 29 29 29 28 27 27 26 25 25 26 26 26 26 26 26 26 26 25 25 25 25 25 24 24 24

GEFSNE_500_meanwind_300.txt.gz
Wind_Speed
19 20 21 21 22 22 21 21 21 21 21 21 21 21 22 22 22 22 23 22 23 23 23 23 24 24 24 24 25 26 26 26 26 26 27 27 27 28
20 21 22 23 23 23 22 22 22 22 22 22 23 23 23 23 23 24 24 24 24 24 24 24 25 25 26 26 26 26 27 27 27 27 27 27 27 28
22 22 23 24 24 24 23 23 23 24 24 24 24 24 25 25 25 25 25 25 25 25 24 25 25 26 26 27 27 27 27 28 28 28 28 28 28 29
22 23 23 24 24 24 24 24 24 25 25 25 25 25 25 25 25 25 25 26 25 25 25 25 26 26 27 27 27 28 28 28 28 29 29 28 28 29
23 23 23 23 23 24 25 25 25 25 25 25 25 25 24 25 25 25 25 26 26 26 26 26 26 27 28 27 27 28 28 28 28 29 30 30 30 30
23 23 23 22 22 22 24 24 25 25 25 25 25 25 25 25 26 26 26 27 27 26 27 27 27 27 28 27 27 27 28 29 29 29 30 30 31 30
24 23 24 24 23 23 24 25 25 25 26 26 27 26 26 26 27 27 27 27 27 27 27 27 27 27 27 28 28 28 27 28 29 30 30 30 30 31
25 25 25 24 24 24 25 26 26 26 27 27 27 27 26 27 27 28 28 27 27 28 28 28 28 28 28 28 28 28 28 28 29 30 31 31 31 31
26 26 26 26 26 26 26 27 27 27 27 28 28 27 28 28 29 29 29 29 29 29 29 29 29 30 30 29 30 30 29 29 30 30 31 31 32 32
26 26 26 27 27 27 28 28 28 28 28 28 28 28 29 29 30 30 30 30 30 30 31 31 30 31 30 29 29 29 29 29 30 30 30 31 31 32
26 26 26 27 27 28 28 28 28 28 29 28 28 28 29 29 30 30 31 31 31 31 32 32 31 30 29 29 29 29 29 29 29 29 29 29 30 31
27 27 27 27 27 28 28 28 29 30 30 30 29 29 30 30 31 31 31 31 31 31 32 32 31 31 31 30 30 29 29 29 29 29 30 30 30 30
28 28 28 28 28 28 29 30 30 31 31 31 30 30 31 31 31 31 31 31 31 30 31 31 31 31 31 31 30 30 29 29 29 29 30 31 31 31
29 29 28 29 29 29 30 30 31 31 31 31 31 31 31 31 32 32 32 31 31 31 31 31 31 31 31 31 31 31 31 30 30 30 31 31 31 31
28 29 29 29 29 30 30 30 31 30 30 31 30 31 31 31 31 31 32 31 31 30 30 31 30 30 31 31 31 31 31 31 31 31 31 31 31 31
29 29 29 29 29 29 30 30 30 30 30 31 30 30 31 31 31 32 32 31 30 29 30 30 31 31 31 31 31 32 32 31 31 30 30 30 30 30
28 28 29 29 29 29 28 28 29 29 29 30 30 31 31 32 32 32 32 31 31 30 30 31 32 32 31 31 31 31 31 31 30 30 30 30 30 29
29 29 29 29 29 29 28 28 29 29 29 30 31 31 32 32 32 32 31 31 31 31 30 30 31 31 31 31 31 31 31 31 31 31 30 30 29 29
29 29 29 28 28 28 28 28 29 29 30 30 31 31 30 30 31 31 31 30 30 30 31 31 31 31 31 30 29 30 30 30 30 30 30 29 28 27
28 28 28 28 27 28 28 28 29 30 30 30 30 30 30 30 30 30 30 29 30 31 31 31 31 31 31 30 28 28 29 29 29 29 29 28 27 26
27 28 28 28 28 28 28 28 28 29 29 29 29 29 29 29 29 29 29 30 30 31 30 30 30 30 29 29 28 28 28 28 28 27 27 27 26 25
27 27 28 28 28 28 28 27 27 27 28 28 28 28 28 28 29 29 29 29 30 30 29 29 29 29 29 28 28 28 27 27 27 26 26 26 25 25
26 27 27 28 29 28 28 28 28 28 28 28 28 28 29 29 29 29 29 29 29 29 29 29 28 28 28 28 28 27 27 26 26 25 25 25 25 25

GEFSNE_500_meanwind_306.txt.gz
Wind_Speed
17 17 17 18 18 18 19 19 19 19 19 19 20 20 19 19 19 19 20 20 19 19 20 20 20 21 22 22 22 23 23 23 23 23 23 24 24 24
18 19 19 18 19 19 19 20 20 21 20 20 20 21 21 20 20 20 20 21 21 21 21 22 22 22 22 23 23 24 24 24 24 25 25 25 25 25
20 20 20 20 19 20 19 20 20 21 21 20 20 20 20 21 21 21 21 21 21 21 21 21 22 23 24 24 24 25 25 26 26 26 27 27 26 27
20 20 20 20 21 21 20 20 21 21 21 21 21 22 22 22 22 22 23 23 23 23 23 23 23 23 24 24 25 25 26 27 27 27 28 27 28 28
21 21 21 21 21 21 21 20 21 21 23 23 23 23 23 23 23 23 23 24 24 24 24 24 24 25 25 26 26 26 26 26 27 28 28 28 28 29
22 22 22 21 21 21 21 21 21 22 23 23 23 23 23 24 24 24 25 25 24 25 25 25 25 26 26 26 26 26 26 27 27 28 29 29 29 29
23 23 22 22 22 21 21 22 23 23 23 24 23 23 23 23 24 25 26 26 25 25 26 26 26 26 27 27 27 27 27 27 28 28 29 30 30 30
24 24 24 23 23 23 23 23 23 24 24 24 24 24 23 24 24 25 25 25 25 26 26 26 26 27 27 27 28 28 28 28 28 29 30 30 30 30
24 24 24 24 24 24 25 25 25 25 25 25 25 25 24 24 25 26 26 26 26 26 26 27 27 26 27 28 28 28 29 29 29 30 30 31 30 30
26 26 25 25 26 26 26 26 26 26 26 26 26 26 26 26 25 26 26 26 26 26 26 26 26 27 27 28 28 28 28 29 30 29 30 31 31 30
27 27 26 26 27 27 27 27 27 27 27 26 27 27 27 27 26 26 26 26 26 25 25 25 26 27 27 28 28 28 28 29 30 30 31 31 31 30
27 27 27 27 27 28 28 28 27 27 27 27 28 28 28 28 27 26 26 26 26 26 26 26 27 27 27 28 28 28 28 29 29 29 30 31 31 30
27 27 27 27 27 27 27 27 26 27 27 27 28 28 27 27 27 27 28 28 28 28 28 28 28 28 28 27 28 28 28 28 29 30 30 30 30 30
27 27 27 27 27 27 26 26 26 26 27 27 27 27 27 27 27 28 28 28 28 28 28 29 29 28 28 27 27 28 29 29 29 30 30 30 30 31
27 27 27 27 26 27 26 26 26 26 27 27 27 27 27 27 28 28 29 29 29 29 28 28 28 28 29 28 28 28 29 29 29 30 31 31 31 32
26 26 27 27 26 26 27 27 27 26 26 27 27 27 27 27 28 28 28 29 29 29 29 30 30 30 29 28 28 28 28 28 29 31 32 32 32 32
25 26 26 26 26 27 27 27 27 27 27 27 28 28 28 28 28 29 29 29 29 29 29 30 30 30 29 28 28 28 29 29 30 31 31 32 32 32
25 25 25 26 26 27 27 27 27 27 27 28 28 28 28 28 28 29 29 29 29 29 29 30 30 29 30 29 29 29 30 31 31 31 32 32 31 31
25 25 26 26 26 27 27 27 27 28 28 29 29 29 29 28 28 29 29 29 29 29 29 29 29 29 29 29 29 30 31 31 31 31 31 31 31 31
26 26 26 26 26 27 27 28 28 28 29 29 30 30 30 29 29 29 29 29 29 29 29 29 30 30 30 30 30 31 31 32 32 32 31 30 30 30
26 26 26 26 26 27 27 27 27 28 28 29 30 30 29 29 29 30 30 30 30 30 29 29 30 31 31 30 30 30 31 31 32 32 31 30 29 28
26 26 25 25 25 26 26 27 27 28 28 28 29 29 29 30 30 30 31 30 31 31 30 30 30 31 30 30 30 30 30 30 30 30 30 29 28 27
26 26 25 25 25 26 26 27 27 27 27 28 29 29 30 30 30 31 31 31 31 31 31 31 30 30 30 29 29 29 29 28 28 28 28 27 27 27

GEFSNE_500_meanwind_312.txt.gz
Wind_Speed
18 18 18 18 18 18 18 18 19 19 19 20 20 20 20 20 20 20 20 21 21 21 21 21 21 21 21 21 22 22 22 21 21 22 22 22 23 23
19 19 19 19 19 20 20 20 20 20 21 22 22 22 22 22 22 22 22 22 23 23 23 22 22 22 22 22 22 22 22 23 23 23 23 23 23 23
20 21 21 21 21 21 21 22 22 21 21 22 22 23 24 24 24 23 24 24 24 24 24 24 23 23 23 23 23 23 23 24 24 24 24 24 25 25
23 23 23 22 23 23 23 23 22 22 22 21 22 23 24 24 24 24 25 25 25 25 25 25 24 24 24 24 24 25 25 25 25 26 26 26 26 26
24 25 24 23 23 23 23 23 23 22 22 22 22 23 24 24 25 25 25 25 25 25 25 26 25 25 25 25 25 26 26 26 26 26 27 27 27 28
25 25 25 25 24 24 24 24 24 24 23 23 23 24 24 25 26 26 26 26 26 26 26 26 26 26 26 26 26 26 26 27 27 27 27 27 28 28
26 26 26 26 26 25 25 24 24 25 25 25 25 25 25 26 26 26 27 27 26 27 26 26 27 27 27 27 27 27 27 27 27 28 28 28 29 29
26 27 27 27 27 26 26 26 25 25 25 26 26 26 26 26 27 27 26 26 26 27 27 26 26 26 27 27 27 27 27 27 28 28 28 29 29 30
26 26 27 27 27 27 27 27 27 26 26 26 26 26 26 26 27 27 27 26 26 26 27 27 27 27 27 27 28 28 28 29 29 28 28 29 29 30
26 27 27 27 28 28 28 28 28 27 26 26 25 25 26 26 27 27 27 27 27 27 27 27 27 28 28 29 28 28 29 29 30 29 29 29 29 30
27 27 27 28 28 29 28 28 28 27 27 27 26 25 26 26 26 27 27 27 28 28 28 28 28 28 28 28 28 28 29 29 29 29 29 30 30 30
27 28 28 28 29 29 29 28 28 27 27 27 27 26 26 27 27 27 27 27 27 27 28 28 28 28 28 28 29 29 28 28 28 29 29 29 29 30
27 28 29 29 29 29 29 28 28 28 28 27 27 28 27 27 27 28 28 28 28 27 27 27 27 27 27 28 28 28 28 28 28 28 28 29 29 30
27 27 28 28 28 29 28 28 28 28 28 28 28 28 28 28 28 28 27 27 27 27 27 27 27 27 27 27 28 28 28 28 28 28 28 29 30 30
27 27 28 28 28 28 28 28 28 28 28 29 29 28 28 28 28 27 27 27 27 28 28 28 28 28 28 28 28 28 28 29 30 30 30 31 31 31
26 27 27 28 28 28 28 28 28 28 29 29 29 29 29 28 28 28 29 28 29 29 29 29 29 28 28 28 28 28 29 29 29 30 31 32 32 32
26 27 27 27 27 27 27 28 28 28 29 29 28 29 29 29 29 29 29 29 29 29 29 30 30 29 29 29 29 29 29 29 30 31 32 31 31 32
26 27 27 27 27 27 27 28 28 28 29 28 28 28 28 28 29 30 30 30 30 30 30 30 30 29 29 30 31 31 31 31 32 32 32 32 31 32
27 27 27 27 27 27 27 27 27 28 28 28 28 28 28 28 29 29 30 30 30 30 30 30 31 30 30 31 31 32 32 32 32 32 32 32 32 32
26 26 25 26 27 27 27 27 26 26 27 27 27 27 28 29 29 30 30 30 30 30 30 31 31 31 31 32 32 32 33 32 32 32 33 33 33 33
26 25 26 26 26 26 27 26 26 26 27 27 27 27 27 28 29 30 30 30 30 30 30 30 31 32 32 32 31 31 32 32 32 32 33 32 32 31
26 25 25 26 26 26 27 27 27 27 27 28 28 28 28 29 29 30 30 30 30 30 30 30 30 31 31 32 32 31 32 32 33 33 32 32 31 30
25 25 25 25 26 26 26 26 27 28 28 28 28 28 29 29 29 29 29 29 29 29 29 30 30 31 31 32 32 32 32 32 32 32 32 31 30 29